This is the latest recevied weather packets stored in our database for station/object KD0RIH. If no packets are shown the sender has not sent any weather packets the latest 10 day(s).
| Time | Temp. | Humidity | Pressure | Rain* | Wind** | Luminosity | Snow |
|---|---|---|---|---|---|---|---|
| 1777554690 | 9.44° C | 75% | 1018.5 hPa | 0 mm | - | 121 W/m² | - |
| 1777554386 | 9.44° C | 77% | 1018.6 hPa | 0 mm | - | 152 W/m² | - |
| 1777554083 | 8.89° C | 79% | 1018.4 hPa | 0 mm | - | 188 W/m² | - |
| 1777553780 | 8.33° C | 80% | 1018.5 hPa | 0 mm | - | 147 W/m² | - |
| 1777553477 | 8.33° C | 80% | 1018.5 hPa | 0 mm | - | 97 W/m² | - |
| 1777553172 | 8.33° C | 79% | 1018.6 hPa | 0 mm | - | 62 W/m² | - |
| 1777552868 | 8.33° C | 81% | 1018.7 hPa | 0 mm | - | 25 W/m² | - |
| 1777552563 | 8.33° C | 80% | 1018.8 hPa | 0 mm | - | 29 W/m² | - |
| 1777552260 | 8.33° C | 79% | 1018.8 hPa | 0 mm | - | 31 W/m² | - |
| 1777551956 | 8.33° C | 77% | 1018.5 hPa | 0 mm | - | 38 W/m² | - |
| 1777551654 | 8.33° C | 77% | 1018.3 hPa | 0 mm | - | 17 W/m² | - |
| 1777551352 | 7.78° C | 77% | 1018.4 hPa | 0 mm | - | 18 W/m² | - |
| 1777551048 | 7.78° C | 77% | 1018.4 hPa | 0 mm | - | 24 W/m² | - |
| 1777550744 | 7.78° C | 77% | 1018.2 hPa | 0 mm | - | 7 W/m² | - |
| 1777550441 | 7.78° C | 78% | 1018.2 hPa | 0 mm | - | 5 W/m² | - |
| 1777550137 | 7.78° C | 79% | 1018.3 hPa | 0 mm | - | 6 W/m² | - |
| 1777549833 | 7.78° C | 79% | 1018.2 hPa | 0 mm | - | 9 W/m² | - |
| 1777549530 | 7.78° C | 79% | 1018.2 hPa | 0 mm | - | 17 W/m² | - |
| 1777549226 | 7.78° C | 80% | 1018.5 hPa | 0 mm | - | 11 W/m² | - |
| 1777548923 | 7.78° C | 80% | 1018.4 hPa | 0 mm | - | 8 W/m² | - |
| 1777548620 | 7.78° C | 80% | 1018.4 hPa | 0 mm | - | 5 W/m² | - |
| 1777548317 | 7.22° C | 80% | 1018.5 hPa | 0 mm | - | 5 W/m² | - |
| 1777548015 | 7.22° C | 80% | 1018.3 hPa | 0 mm | - | 3 W/m² | - |
| 1777547709 | 7.22° C | 82% | 1018.5 hPa | 0 mm | - | 2 W/m² | - |
| 1777547406 | 7.22° C | 85% | 1018.3 hPa | 0 mm | - | 1 W/m² | - |
* Rain latest hour (hover to see other rain measurements)
** Current wind speed in m/s (hover to see current wind gust speed)